Погода в Рязани

Погода в Рязани : погода сейчас, прогноз погоды и архив. Всё, что Вы хотите узнать о погоде в Рязани!

Хотите узнать прогноз погоды в Рязани? Тогда Вам сюда: Погода в Рязани

Поиск расширенной информации на нашем сайте:

Другие новости

Новости СМИ2

Главная страница сайта

Новости сайта

03.07.2017

Напоминаем, что на нашем специализированном сайте Метеоцентр.Азия вы можете получить высокодетализированные автоматические прогнозы погоды по пунктам России, СНГ и мира в авиационном формате (включающие направление и скорость ветра, видимость, явления погоды, количество и форму облачности, нижнюю и верхнюю границу облачности).

Рекомендуем: Информация medicine на нашем сайте.

Погода в Рязани - сегодня

Время (UTC), дата Ветер
(°,м/с) 
Видим.   Явления Облачность Т
(°С)
Тd
(°С)
f(%) Тe
(°С)
Pmin
(гПа)
dP
(гПа)
Po
(мм)
O2
(г/м3)
Тmin Tmax R s Состояние
почвы
00 16.06.18 тихо ()   10 км    5/0 верхняя 
[Ci fib]
+5.8 +4.9 94 +6  1021.3  0.3  751  296           
03 16.06.18 тихо ()   20000 м    8/0 верхняя 
[Ci fib]
+12.7 +9.3 80 +13  1021.5  0.8  752  288  +5.7        сухая 
06 16.06.18 060 (СВ) 20000 м    6/0 верхняя 
[Ci fib]
+19 +3.1 35 +20  1021.6  0.5  752  283           
09 16.06.18 040 (СВ) 20000 м    8/8 600 м 
[Cu hum]
+20.9 +3.1 31 +21  1020.8  -0.7  752  281           
12 16.06.18 020 (С) 20000 м    8/8 600 м 
[Cu hum]
+23.4 +4 28 +23  1019.9  -0.8  751  278           
18 16.06.18 тихо ()   20000 м    ясно 
+15.2 +8 62 +15  1019.7  0.3  751  285           
21 16.06.18 тихо ()   20000 м    ясно 
+10.5 +8.7 89 +11  1020.4  0.4  751  290           
00 17.06.18 тихо ()   10 км    ясно 
+8.6 +7.9 95 +9  1020.6  0.1  751  292           
03 17.06.18 тихо ()   20000 м    ясно 
+14.5 +11.4 82 +18  1020.8  0.6  752  285  +7.9        сухая 
06 17.06.18 040 (СВ) 20000 м    ясно 
+22.1 +4.3 31 +22  1020.3  0.1  752  279           
09 17.06.18 040 (СВ) 20000 м    1/1 600 м 
[Cu hum]
+24.3 +4 27 +24  1019.5  -0.6  751  277           
12 17.06.18 110 (В) 20000 м    ясно 
+25.3 +3.7 25 +25  1018  -1.4  750  276           
18 17.06.18 тихо ()   20000 м    1/0 верхняя 
[Ci fib]
+16.9 +9.2 60 +17  1017.6  0.1  749  283           
21 17.06.18 тихо ()   20000 м    6/0 верхняя 
[Ci]
+12.2 +10.5 89 +14  1018  0.2  749  287           
00 18.06.18 тихо ()   10 км    8/0 верхняя 
[Cc]
+10.3 +9.5 95 +11  1018.5  0.3  750  289           
03 18.06.18 тихо ()   20000 м    6/0 верхняя 
[Ci fib]
+14.5 +11.2 81 +17  1017.9  -0.3  749  285  +9.5        сухая 
06 18.06.18 340 (С) 20000 м    1/0 верхняя 
[Ci fib]
+24.1 +7.5 35 +24  1017  -0.3  749  276           
09 18.06.18 320 (СЗ) 20000 м    3/3 600 м 
[Cu hum]
+27.2 +7.7 29 +27  1016.3  -0.5  749  273           
12 18.06.18 320 (СЗ) 20000 м    3/3 600 м 
[Cu hum]
+28.3 +7.9 28 +28  1015.4  -0.8  748  272           
18 18.06.18 тихо ()   20000 м    ясно 
+18.2 +11.7 66 +22  1014.8  -0.2  747  280           
21 18.06.18 тихо ()   20000 м    ясно 
+14.2 +12 87 +18  1015.2  0.1  747  284           
00 19.06.18 тихо ()   20000 м    ясно 
+12.2 +10.9 92 +15  1015.3  747  286           
03 19.06.18 тихо ()   20000 м    ясно 
+17.2 +11.8 71 +21  1015  747  281  +11.9        сухая 
06 19.06.18 240 (ЮЗ) 20000 м    3/0 верхняя 
[Ci fib]
+25.2 +10 38 +26  1014  -0.5  747  274           
09 19.06.18 250 (З) 20000 м    6/3 600 м верхняя 
[Cu hum|Ci fib]
+27.3 +8.6 31 +27  1012.8  -1  746  272           
Время (UTC), дата Ветер
(°,м/с) 
Видим.   Явления Облачность Т
(°С)
Тd
(°С)
f(%) Тe
(°С)
Pmin
(гПа)
dP
(гПа)
Po
(мм)
O2
(г/м3)
Тmin Tmax R s Состояние
почвы

Для получения пояснительной информации подведите курсор к названию столбца.

ПОГОДА в Рязани - архив

Всё, что Вы хотите узнать о погоде в Рязани - удобно и подробно!

Выберите нужную дату (начиная с 1 января 2015* года) и нажмите кнопку "Найти".
Будут отображены архивные сводки погоды по пункту Рязань, начиная с указанной даты.


Отображать данные в формате CSV (для использования в таблицах Excel)


Внимание! Наш архив погоды предназначен исключительно для личного некоммерческого использования в познавательных целях. Если Вам необходимы официальные справки о состоянии погоды (для производственных, юридических, коммерческих и т.п. целей), обращайтесь в органы Росгидромета.

*Примечание: данная дата относится к архиву по метеостанциям СССР (Россия, СНГ, Балтия).
Архив по метеостанциям Зарубежной Европы и Азии (кроме Китая) хранится 10 дней, по другим регионам земного шара (Китай, Африка, Америка, Австралия, Океания) - 1 день.

Рязань - район местоположения метеостанции


Название, широта, долгота, высота метеостанции:
Рязань 54.6°ш. 39.7°д. 158 м над ур. моря [Российская Федерация]

Дополнительная информация

В oтличие oт бoльшинства пoгoдных сайтoв мы публикуем пoдрoбную метеoинфoрмацию в детальнoм прoфессиoнальнoм фoрмате.

Характеристики температуры и влажнoсти вoздуха измеряются на высoте 2 м в тени вдали oт зданий и деревьев.
Скoрoсть ветра измеряется на высoте 10 м (на урoвне рoста челoвека скoрoсть ветра ниже в 1.5-2 раза). Если метеoстанция нахoдится в гoрoде или в лесу, тo скoрoсть ветра занижена на 2-4 м/с пo сравнению с oткрытым местoм. Скoрoсть ветра над акватoриями крупных рек и oзёр, а также на вершинах хoлмoв на 2-5 м/с выше, чем в oбычных услoвиях.
Атмoсфернoе давление в разных тoчках местнoсти мoжет значительнo oтличаться oт давления на метеoстанции, в зависимoсти oт услoвий рельефа (при пoдъёме на 10 м давление пoнижается примернo на 1 мм рт.ст.).